EW2997 Weather Reports


time (UTC)temp
C
wind
direction
speed
KPH
gust
KPH
rain 1hr
cm
rain 24hr
cm
rain mn
cm
humidity
%
barometer
mb
20260506155332 15 228 3.2 3.2 0.00 0.58 0.58 91 1011.1
20260506152328 16 324 6.4 8.0 0.00 0.58 0.58 91 1010.7
20260506145328 15 253 0.0 0.0 0.08 0.58 0.58 94 1011.1
20260506142324 14 23 3.2 3.2 0.05 0.56 0.56 95 1010.7
20260506135320 14 213 6.4 6.4 0.18 0.48 0.48 94 1011.4
20260506132318 14 204 6.4 6.4 0.03 0.33 0.33 93 1011.1
20260506125314 14 180 0.0 0.0 0.13 0.25 0.25 92 1011.4
20260506122310 15 237 6.4 6.4 0.05 0.18 0.18 89 1011.1
20260506115307 15 168 1.6 1.6 0.13 0.13 0.13 89 1011.4
20260506112305 15 114 0.0 0.0 0.10 0.10 0.10 87 1011.7
20260506105305 17 192 3.2 3.2 0.00 0.00 0.00 70 1011.1
20260506102259 18 260 4.8 4.8 0.00 0.00 0.00 58 1010.4
20260506095255 18 210 8.0 9.7 0.00 0.00 0.00 56 1009.7
20260506092251 18 182 4.8 4.8 0.00 0.00 0.00 55 1010.4
20260506085251 19 221 4.8 4.8 0.00 0.00 0.00 53 1010.4
20260506082248 19 150 4.8 4.8 0.00 0.00 0.00 52 1010.7
20260506072240 20 200 3.2 3.2 0.00 0.00 0.00 51 1010.7
20260506062235 20 222 4.8 4.8 0.00 0.00 0.00 50 1011.4
20260506042229 18 120 3.2 3.2 0.00 0.00 0.00 55 1012.5
20260506035229 19 168 0.0 0.0 0.00 0.00 0.00 52 1012.1
20260506032229 19 148 0.0 0.0 0.00 0.00 0.00 51 1012.1
20260506025229 17 119 0.0 0.0 0.00 0.00 0.00 56 1012.1
20260506022228 16 162 0.0 0.0 0.00 0.00 0.00 65 1012.5
20260506015224 16 114 0.0 0.0 0.00 0.00 0.00 63 1012.1
20260506012222 16 174 0.0 0.0 0.00 0.00 0.00 61 1012.1
20260506005222 18 126 3.2 3.2 0.00 0.00 0.00 51 1011.4
20260506002217 18 138 4.8 4.8 0.00 0.00 0.00 52 1011.4
20260505235212 21 183 0.0 0.0 0.00 0.00 0.00 47 1011.4
20260505232212 24 256 6.4 6.4 0.00 0.00 0.00 33 1011.1
20260505225212 25 191 3.2 3.2 0.00 0.00 0.00 34 1010.7
20260505222209 25 293 4.8 4.8 0.00 0.00 0.00 39 1011.1
20260505215205 26 217 8.0 9.7 0.00 0.00 0.00 34 1010.7
20260505212205 26 258 6.4 6.4 0.00 0.00 0.00 31 1010.7
20260505205200 27 203 9.7 11.3 0.00 0.00 0.00 31 1010.7
20260505202158 27 252 6.4 6.4 0.00 0.00 0.00 31 1011.1
20260505195157 27 213 9.7 9.7 0.00 0.00 0.00 31 1011.1
20260505192157 26 258 9.7 9.7 0.00 0.00 0.00 35 1011.4
20260505185154 26 216 14.5 16.1 0.00 0.00 0.00 35 1011.7
20260505182153 26 240 8.0 8.0 0.00 0.00 0.00 40 1012.1
20260505175150 25 258 6.4 6.4 0.00 0.00 0.00 40 1012.5
20260505172149 25 276 11.3 12.9 0.00 0.00 0.00 39 1012.5
20260505165148 24 234 8.0 8.0 0.00 0.00 0.00 43 1013.2
20260505162143 24 262 9.7 9.7 0.00 0.00 0.00 44 1013.2